This is the latest recevied weather packets stored in our database for station/object VR2R-13. If no packets are shown the sender has not sent any weather packets the latest 10 day(s).
| Time | Temp. | Humidity | Pressure | Rain* | Wind** | Luminosity | Snow |
|---|---|---|---|---|---|---|---|
| 1777815440 | 17.22° C | 98% | 915.1 hPa | 0 mm | - | - | - |
| 1777815140 | 17.22° C | 98% | 915.1 hPa | 0 mm | - | - | - |
| 1777814961 | 17.22° C | 98% | 915.1 hPa | 0 mm | - | - | - |
| 1777814840 | 17.22° C | 98% | 915.3 hPa | 0 mm | - | - | - |
| 1777814601 | 17.22° C | 97% | 915.6 hPa | 1.27 mm | - | - | - |
| 1777814540 | 17.22° C | 97% | 915.6 hPa | 0.76 mm | - | - | - |
| 1777814242 | 17.78° C | 98% | 915.7 hPa | 0 mm | - | - | - |
| 1777813881 | 17.22° C | 98% | 915.4 hPa | 0 mm | - | - | - |
| 1777813521 | 17.78° C | 98% | 915 hPa | 0 mm | - | - | - |
| 1777813161 | 17.78° C | 98% | 915 hPa | 0.25 mm | - | - | - |
| 1777812801 | 17.78° C | 97% | 914.9 hPa | 0.25 mm | - | - | - |
| 1777812442 | 17.78° C | 97% | 914.8 hPa | 0.25 mm | - | - | - |
| 1777812440 | 17.78° C | 97% | 914.8 hPa | 0.25 mm | - | - | - |
| 1777812140 | 17.78° C | 97% | 914.8 hPa | 2.29 mm | - | - | - |
| 1777812081 | 17.78° C | 97% | 914.8 hPa | 1.78 mm | - | - | - |
| 1777811840 | 17.78° C | 97% | 915 hPa | 0.51 mm | - | - | - |
| 1777811721 | 17.78° C | 97% | 914.9 hPa | 0.25 mm | - | - | - |
| 1777811540 | 17.78° C | 97% | 914.8 hPa | 0.25 mm | - | - | - |
| 1777811361 | 17.78° C | 98% | 914.6 hPa | 0 mm | - | - | - |
| 1777811240 | 17.78° C | 97% | 914.4 hPa | 0 mm | - | - | - |
| 1777811001 | 17.78° C | 97% | 914.7 hPa | 0 mm | - | - | - |
| 1777810939 | 17.78° C | 97% | 914.7 hPa | 0 mm | - | - | - |
| 1777810641 | 17.22° C | 98% | 914.8 hPa | 0 mm | - | - | - |
| 1777810640 | 17.22° C | 98% | 914.8 hPa | 0 mm | - | - | - |
| 1777810339 | 17.78° C | 97% | 914.7 hPa | 1.27 mm | - | - | - |
* Rain latest hour (hover to see other rain measurements)
** Current wind speed in m/s (hover to see current wind gust speed)